Home   Weather   Ansbach   Past weeks

Flag for Germany Past Weather in Ansbach, Bavaria, Germany — Yesterday and Last 2 Weeks

Now
18 °F

Sunny.


Feels Like: 8 °F
Forecast: 5 / 22 °F
Wind: 7 mph from Northeast

Location: Ansbach / Katterbach

Current Time: Jan 19, 2017 at 12:02:28 pm

Latest Report: Jan 19, 2017 at 10:58 am


Visibility: N/A

Pressure: 30.71 "Hg

Humidity: 73%

Dew Point: 10 °F

Location of AnsbachLocation

Past Weather in Ansbach — Graph

°F

Ansbach Temperature Yesterday

Maximum temperature yesterday: 27 °F (at 2:58 pm)
Minimum temperature yesterday: 16 °F (at 11:58 pm)
Average temperature yesterday: 22 °F

High & Low Weather Summary for the Past Weeks

 TemperatureHumidityPressure
High39 °F (Jan 13, 2:22 am)100% (Jan 11, 5:04 pm)30.86 "Hg (Jan 11, 5:04 pm)
Low3 °F (Jan 7, 2:58 am)54% (Jan 7, 2:58 pm)29.30 "Hg (Jan 13, 2:22 am)
Average27 °F82%30.17 "Hg
* Reported Jan 4 10:05 am — Jan 19 10:58 am, Ansbach, Weather by CustomWeather, © 2017

Note: Actual official high and low records may vary slightly from our data, if they occured in-between our weather recording intervals... More about our weather records

Advertising

Ansbach Weather History for the Previous 24 Hours

Scroll right to see more
 ConditionsComfort  
Time TempWeatherWind HumidityBarometerVisibility
10:58 am
Thu, Jan 19
18 °FSunny.7 mph73%30.71 "HgN/A
9:58 am15 °FSunny.6 mph80%30.71 "HgN/A
8:58 am13 °FSunny.6 mph82%30.70 "HgN/A
7:58 am13 °FClear.8 mph82%30.69 "HgN/A
6:58 am12 °FClear.8 mph84%30.69 "HgN/A
5:58 am13 °FClear.8 mph84%30.69 "HgN/A
4:58 am13 °FClear.9 mph84%30.69 "HgN/A
3:58 am14 °FClear.9 mph85%30.69 "HgN/A
2:58 am16 °FClear.9 mph79%30.68 "HgN/A
1:58 am16 °FClear.5 mph79%30.69 "HgN/A
12:58 am15 °FClear.8 mph84%30.68 "HgN/A
11:58 pm
Wed, Jan 18
16 °FClear.6 mph86%30.69 "HgN/A
10:58 pm16 °FClear.6 mph82%30.70 "HgN/A
9:58 pm17 °FClear.5 mph82%30.70 "HgN/A
8:58 pm18 °FClear.8 mph79%30.69 "HgN/A
7:58 pm19 °FClear.8 mph73%30.69 "HgN/A
6:58 pm19 °FClear.8 mph73%30.69 "HgN/A
5:58 pm23 °FClear.9 mph68%30.68 "HgN/A
4:58 pm23 °FClear.9 mph68%30.68 "HgN/A
3:58 pm24 °FSunny.10 mph66%30.68 "HgN/A
2:58 pm27 °FPassing clouds.15 mph59%30.68 "HgN/A
1:58 pm25 °FSunny.15 mph63%30.68 "HgN/A
12:58 pm25 °FPassing clouds.14 mph62%30.68 "HgN/A
Weather by CustomWeather, © 2017

See weather overviewHow to use our weather pages